Lapse_Rate
1.9 2.3 1.6 2.2 6.4 6.5 6.5 6.5 6.5 6.5 6.5 7.3 7.3 6.9 6.7 6.8 6.5 6.5 7.3 5.7 7.0 4.4 3.8 3.9 4.3 4.4 4.9 5.3 5.1 5.2 5.3 5.4 5.5 5.3 5.1 5.2 5.3 5.3 5.4 5.4 5.5 5.8 6.0 5.6 5.0 4.8 4.8 4.8 4.8
2.0 2.5 0.1 2.3 6.5 6.5 6.5 6.5 6.5 6.5 7.0 7.0 6.8 7.2 6.8 6.6 6.8 7.3 7.1 6.9 6.2 5.0 3.9 3.9 4.3 4.5 4.6 4.6 4.4 4.4 4.7 4.8 4.9 5.0 5.1 5.2 5.4 5.3 5.1 5.1 5.1 5.5 5.8 5.7 5.3 5.0 4.6 4.2 4.5
2.2 2.4 1.8 6.5 6.5 6.5 6.5 6.5 6.5 6.9 7.2 7.1 6.6 6.3 6.2 6.6 6.8 7.3 7.4 6.5 5.2 4.7 4.3 4.1 4.2 4.3 4.4 4.5 4.5 4.5 4.1 4.0 4.2 4.4 4.7 4.8 4.8 5.1 5.2 5.1 5.2 5.4 5.6 5.6 5.3 4.8 4.4 4.3 4.7
3.4 2.4 3.0 6.5 6.5 6.5 6.5 6.5 6.8 6.8 6.5 6.3 6.7 6.6 6.1 6.2 6.1 7.0 7.5 6.6 5.3 4.8 4.6 4.6 4.5 4.0 4.2 4.1 4.2 4.2 4.1 4.0 4.0 4.0 4.3 4.5 4.6 4.5 4.6 4.9 5.1 5.2 5.3 5.4 5.2 4.6 4.5 4.4 4.5
-0.5 2.4 6.5 6.5 6.5 6.5 6.6 6.9 6.1 6.4 6.7 6.8 7.1 6.7 6.6 5.9 6.1 7.7 7.8 6.8 6.3 5.3 5.3 5.1 5.0 4.8 5.2 5.3 4.8 4.4 4.4 4.2 4.2 4.2 4.1 4.5 5.1 5.1 5.0 5.3 5.1 5.0 4.8 4.7 4.7 4.8 4.9 4.7 4.6
2.2 2.9 6.5 6.5 6.5 6.5 6.4 6.6 6.7 6.7 6.8 6.5 6.8 6.7 6.3 6.2 7.0 6.2 6.3 6.8 7.5 6.1 6.1 5.9 5.3 5.3 5.3 5.6 5.9 5.2 4.5 4.1 4.0 4.1 4.3 4.9 4.9 5.9 6.0 5.8 5.4 5.3 5.0 4.9 4.7 4.6 4.4 4.3 4.3
4.8 6.5 6.5 6.5 6.5 6.5 6.5 6.5 6.4 6.4 6.5 6.6 6.5 6.4 5.9 6.4 6.4 5.4 5.9 6.6 6.7 7.0 6.6 6.6 6.1 5.6 5.8 5.9 5.7 4.7 4.6 4.3 3.8 3.6 4.2 4.8 5.1 5.9 6.0 5.8 5.5 4.8 4.9 4.7 4.5 4.1 4.4 4.4 4.2
3.0 5.4 6.5 6.5 6.5 6.5 6.5 6.4 6.3 6.1 6.6 7.1 6.3 6.3 6.2 6.0 5.4 5.9 5.6 4.7 4.7 5.2 5.1 5.6 5.3 5.3 6.1 6.5 6.3 5.0 4.1 4.2 3.9 3.5 3.9 4.8 5.2 5.7 5.9 5.9 5.6 5.0 5.1 5.0 4.9 5.0 4.5 4.0 4.1
3.9 6.5 6.5 6.5 6.5 6.5 5.8 6.3 6.5 6.2 5.6 4.9 5.0 5.3 5.8 5.8 5.6 5.4 5.0 4.8 4.3 4.4 3.5 5.2 5.0 5.7 6.3 6.4 5.6 5.1 3.9 3.7 3.2 3.1 3.0 4.0 4.4 5.0 5.8 6.1 5.6 5.3 5.3 5.2 5.2 4.8 5.1 4.9 4.1
4.3 6.5 6.5 6.4 6.2 6.5 6.0 5.8 6.3 5.9 6.2 5.9 5.7 5.8 6.0 6.0 5.3 4.3 3.8 3.7 3.8 3.5 3.4 4.0 4.8 4.7 6.0 5.8 5.5 4.9 3.7 3.5 2.7 2.6 3.1 2.8 3.1 3.8 4.3 4.9 4.8 4.1 4.2 4.0 4.2 4.5 4.4 4.3 4.1
5.2 6.5 6.3 6.1 5.7 6.0 6.3 5.7 6.5 5.8 6.5 6.4 4.9 4.9 5.4 5.2 4.3 4.1 4.4 4.2 4.1 3.8 3.0 3.5 4.3 4.8 5.3 5.0 5.1 4.2 3.9 3.5 3.0 2.5 2.6 2.5 2.7 3.2 3.5 3.1 3.2 3.4 3.7 3.6 3.5 3.6 3.3 3.7 3.9
6.4 5.9 5.9 6.3 5.8 5.9 5.8 6.1 6.3 5.8 5.7 5.0 4.6 5.2 5.7 5.7 4.5 4.3 3.9 3.7 3.8 3.3 3.6 3.5 4.2 4.1 4.9 5.8 4.6 4.3 3.5 3.5 2.7 3.1 2.7 2.1 1.7 2.0 2.5 2.4 2.3 2.5 2.6 2.5 2.8 3.2 3.7 3.9 3.9
6.5 6.0 6.1 6.1 5.6 5.4 5.6 5.7 5.9 4.9 4.8 5.3 5.5 5.8 5.3 4.7 4.1 3.7 3.4 3.7 3.3 3.7 4.5 3.4 4.8 4.6 5.0 5.3 5.2 4.6 3.8 3.8 3.9 3.5 3.4 2.8 2.2 2.1 2.8 2.8 2.4 2.3 2.5 1.9 1.4 1.8 2.6 3.4 3.6
6.1 6.3 5.8 5.5 5.1 6.0 6.0 6.2 5.7 5.9 5.0 5.8 6.1 5.1 4.6 4.5 4.2 3.8 3.7 4.2 4.1 4.4 5.0 4.0 4.4 5.4 5.9 5.3 5.1 4.7 4.9 4.8 4.3 4.1 3.9 3.7 2.9 2.7 2.2 2.5 2.4 2.2 2.2 2.4 1.6 1.3 1.4 2.1 2.3
6.2 6.5 6.0 5.6 5.5 6.0 4.5 6.4 6.5 5.5 4.9 5.9 5.9 4.9 4.3 4.4 4.2 3.8 3.8 4.0 4.2 3.9 4.7 4.5 5.1 6.0 5.9 5.8 5.5 5.4 5.5 5.3 4.3 4.4 4.6 4.3 3.7 3.2 3.1 2.3 2.0 2.2 2.7 2.3 1.7 1.5 1.9 1.6 1.9
6.4 6.5 6.5 6.2 5.4 5.4 5.8 6.5 6.0 5.3 5.4 5.0 5.1 4.7 4.3 4.5 4.0 3.2 3.3 3.2 3.5 4.3 4.5 5.1 6.7 5.8 5.8 6.3 5.7 5.5 5.7 5.6 5.0 4.8 4.9 4.8 4.7 3.9 3.4 2.2 1.8 3.2 2.6 2.3 2.2 1.1 1.4 1.4 1.1
6.5 6.5 6.5 6.5 5.6 6.1 6.4 6.5 4.8 4.2 4.8 4.7 4.2 3.8 3.9 4.0 3.7 3.3 3.3 3.2 3.7 4.0 4.4 4.7 4.5 4.3 4.5 5.8 5.7 5.5 5.4 5.2 5.4 5.6 5.4 5.4 5.2 4.9 4.2 3.3 3.2 3.9 3.3 2.4 1.7 2.1 1.1 1.7 1.7
6.5 6.5 6.5 6.5 6.5 6.5 6.5 6.5 5.1 3.6 4.3 3.9 3.1 2.7 3.3 3.6 3.6 3.5 3.5 3.6 3.3 3.5 4.0 4.3 4.1 4.2 4.6 4.7 4.8 4.6 4.6 4.9 5.5 5.6 5.9 6.1 5.9 5.7 5.1 4.6 4.1 4.0 2.9 2.3 2.4 1.6 2.8 1.8 1.7
6.5 6.5 6.5 6.5 6.5 6.5 6.5 6.5 6.5 3.8 3.4 2.8 2.3 2.6 2.9 3.2 3.5 3.4 3.3 3.2 2.8 3.2 4.1 4.6 4.7 4.3 3.9 3.8 4.0 3.7 4.0 3.4 4.3 5.4 6.4 6.4 6.1 6.0 5.6 5.1 4.9 4.5 2.7 2.3 2.9 2.0 2.1 2.1 2.4
6.5 6.5 6.5 6.5 6.5 6.5 6.5 6.5 6.5 4.6 4.6 3.7 3.2 2.4 2.6 3.3 3.6 4.1 2.8 2.7 3.5 3.4 3.9 4.1 4.3 4.5 3.4 3.5 2.8 3.5 3.6 4.2 4.7 5.5 6.1 6.6 6.4 6.3 6.0 5.4 4.9 4.6 3.7 3.1 2.7 2.5 2.5 2.4 2.4
6.5 6.5 6.5 6.5 6.5 6.5 6.5 6.5 6.5 5.9 5.2 3.6 3.3 3.7 3.2 3.5 3.7 4.1 3.4 2.7 2.7 3.4 3.7 4.1 4.2 4.3 4.0 4.8 4.4 4.2 4.3 4.4 4.1 4.0 4.4 5.9 6.4 6.3 6.3 6.2 5.8 5.4 4.8 3.9 3.5 3.6 3.7 3.5 3.0
6.5 6.5 6.5 6.5 6.5 6.5 6.5 6.5 6.5 6.5 6.5 5.9 4.3 2.5 2.5 3.7 4.3 3.6 3.1 2.1 2.4 3.2 3.2 3.5 3.7 4.3 4.8 5.1 3.8 4.3 3.9 4.7 3.7 3.6 4.0 5.0 6.0 6.4 6.5 6.6 6.4 6.1 5.5 4.9 4.7 5.8 4.6 4.2 4.7
6.5 6.5 6.5 6.5 6.5 6.5 6.5 6.5 6.5 6.5 6.5 6.5 5.3 3.2 2.5 3.6 3.2 3.1 3.1 2.6 2.2 2.2 2.3 2.6 3.5 4.2 4.5 4.6 4.3 4.2 4.8 3.9 3.5 3.4 3.6 3.8 5.1 5.4 5.7 5.9 6.3 5.4 5.5 5.4 5.2 4.8 4.9 4.4 4.6
6.5 6.5 6.5 6.5 6.5 6.5 6.5 6.5 6.5 6.5 6.5 6.5 5.5 4.1 2.8 3.6 3.1 3.4 3.5 2.0 2.2 2.0 1.9 2.1 3.2 4.3 4.2 4.2 4.5 4.8 4.6 4.2 3.5 3.1 2.8 3.0 3.4 4.1 4.4 4.4 4.5 4.8 5.2 5.0 5.1 5.4 5.3 5.7 5.2
6.5 6.5 6.5 6.5 6.5 6.5 6.5 6.5 6.5 6.5 6.5 6.3 6.2 5.2 3.0 3.4 3.1 3.1 2.0 3.2 2.5 1.8 2.1 3.1 3.5 4.5 4.2 4.2 3.7 3.4 3.0 2.8 2.6 2.6 2.7 3.0 3.1 3.5 3.8 4.2 4.3 4.5 4.8 5.1 5.1 4.9 4.7 5.1 5.5
6.5 6.5 6.5 6.5 6.5 6.5 6.5 6.5 6.5 6.5 5.7 5.7 6.3 4.9 3.6 2.9 3.2 2.7 3.2 3.7 3.4 3.2 2.9 3.6 4.2 3.5 3.1 2.7 2.7 2.3 2.2 2.0 2.0 2.2 2.5 2.7 2.9 3.4 4.2 4.4 4.7 4.9 5.1 5.0 4.9 4.9 4.7 4.8 4.2
6.5 6.5 6.5 6.5 6.5 6.5 6.5 6.5 6.5 6.5 6.4 5.5 4.7 3.6 3.0 3.2 3.1 2.6 3.0 3.5 3.4 3.6 3.2 3.0 3.4 3.2 2.7 2.4 1.6 1.6 1.6 1.9 1.9 2.1 2.8 2.4 3.1 5.0 4.2 4.7 4.7 5.0 5.2 5.4 5.3 4.7 4.0 3.9 3.8
6.5 6.5 6.5 6.5 6.5 6.5 6.5 6.5 6.5 6.5 6.5 6.5 5.5 3.5 3.1 3.3 2.6 3.0 3.2 3.1 3.5 2.8 2.1 2.7 3.1 2.9 1.9 1.6 1.6 1.8 1.7 2.2 2.7 2.8 2.1 2.5 3.7 4.4 4.7 4.7 4.8 5.1 5.7 5.9 5.7 5.3 5.4 5.0 4.5
6.5 6.5 6.5 6.5 6.5 6.5 6.5 6.5 6.5 6.5 6.5 6.5 4.4 3.0 2.5 2.5 2.6 3.1 3.1 3.0 2.0 2.5 2.7 2.4 2.4 1.9 1.5 1.5 1.7 1.8 1.9 2.4 3.1 2.7 3.4 4.2 5.1 5.5 5.5 5.7 6.1 6.4 6.5 6.7 6.2 5.8 6.6 6.3 6.1
6.5 6.5 6.5 6.5 6.5 6.5 6.5 6.5 6.5 6.4 5.4 5.0 4.3 3.3 2.3 2.9 2.0 2.2 2.0 2.5 2.9 2.7 2.8 2.3 1.8 2.1 1.9 2.1 2.2 2.3 2.7 2.9 3.0 3.8 4.9 5.4 5.3 6.1 6.6 6.9 6.9 7.1 7.5 7.4 6.9 7.1 6.5 6.6 6.3
Wind_Speed
6 2 2 4 6 6 3 6 3 6 2 7 8 9 8 5 6 5 5 5 6 8 11 13 18 18 18 18 18 18 18 18 18 17 16 15 14 14 14 14 15 15 16 16 13 9 10 12 12
4 3 4 3 5 4 2 2 7 4 8 3 8 8 8 6 5 3 3 6 11 10 12 14 16 15 16 16 17 17 17 16 16 16 15 13 12 11 11 12 12 13 14 15 14 10 10 10 10
3 6 4 4 4 5 4 6 9 7 3 2 3 4 3 2 3 2 4 10 11 11 11 13 14 15 15 14 15 15 15 15 15 15 14 13 12 10 9 9 10 10 11 12 12 11 9 9 8
3 4 4 7 12 5 8 11 8 2 4 7 2 4 3 2 2 4 4 11 10 9 11 13 13 14 15 15 15 15 16 16 16 16 13 11 8 8 8 8 9 8 8 9 10 9 8 9 9
4 4 6 8 15 10 8 10 8 4 4 4 1 3 3 2 5 4 5 7 6 9 11 12 12 13 13 14 15 16 16 17 19 17 18 20 6 8 9 10 10 11 10 10 9 8 10 11 12
4 4 5 6 6 5 5 9 9 10 7 7 6 4 1 3 2 6 8 4 10 9 9 9 11 11 13 13 17 18 19 20 20 23 21 21 19 7 12 13 15 14 12 12 13 14 13 14 16
7 4 3 11 10 6 5 5 4 5 2 5 3 4 1 3 2 6 5 7 15 17 16 14 12 8 11 13 13 21 22 23 23 22 22 21 23 15 14 19 18 19 15 15 16 17 13 15 17
5 5 8 2 6 5 5 4 4 5 1 1 2 4 3 4 6 4 6 8 12 15 16 16 18 14 9 16 19 20 22 24 23 22 21 22 20 17 15 16 16 18 18 18 17 20 14 15 18
5 5 4 7 6 6 6 5 4 4 4 3 2 4 3 5 4 6 6 6 6 7 12 19 20 21 19 17 20 22 21 23 23 21 21 17 18 17 14 20 21 18 19 20 22 19 17 15 15
5 4 5 4 5 7 6 6 6 4 1 5 3 3 1 2 6 7 7 6 7 6 6 15 17 19 19 16 22 25 23 25 25 24 23 21 19 18 16 18 20 20 22 20 21 21 20 17 15
5 4 5 4 10 11 8 6 3 8 3 2 6 4 3 4 8 8 6 6 6 4 5 10 14 17 18 19 19 22 23 23 23 25 26 22 19 20 18 17 18 19 21 18 18 19 18 17 14
8 6 6 7 8 7 8 5 4 2 3 6 8 5 3 5 7 8 7 6 6 7 5 9 13 15 14 18 18 18 18 20 17 23 24 20 15 16 18 16 17 17 18 17 17 15 18 19 17
16 8 9 12 12 7 10 6 4 5 4 4 5 5 5 7 7 7 7 7 7 7 4 6 12 11 11 15 17 18 17 20 21 22 23 22 17 15 18 16 17 17 19 17 15 14 14 14 15
9 18 11 12 10 5 10 3 4 4 4 4 3 6 7 9 7 6 7 5 7 6 4 3 8 9 11 10 13 15 18 19 21 22 23 25 21 18 16 14 15 17 20 20 16 14 12 10 12
20 21 11 9 4 5 11 7 3 4 7 8 7 6 7 8 7 8 7 6 7 4 4 2 4 6 7 7 10 14 15 16 18 20 22 24 23 21 18 14 13 16 20 19 18 18 15 12 14
8 5 6 6 10 8 4 3 6 8 8 7 8 7 7 5 8 7 7 7 6 5 5 3 6 6 4 4 8 10 11 13 14 14 18 20 20 21 19 13 13 20 19 16 14 12 8 8 8
3 3 3 3 12 6 3 5 9 9 8 8 8 8 8 6 5 5 7 8 7 6 4 4 6 4 6 7 8 9 10 10 10 11 12 15 16 18 18 16 18 19 17 13 10 6 4 7 10
6 5 3 6 10 4 6 8 10 10 10 11 9 9 9 9 9 9 8 8 7 6 4 4 4 6 5 6 6 8 7 4 5 7 8 9 12 13 15 16 17 17 11 8 10 5 6 2 8
6 6 6 4 6 5 8 7 16 11 8 10 10 9 9 10 8 9 8 8 7 5 5 3 6 4 5 3 2 2 1 1 1 2 4 5 6 10 10 10 11 13 6 4 8 4 6 4 10
3 7 4 1 2 4 5 7 11 9 9 13 14 11 11 7 8 8 8 8 7 7 6 4 5 4 3 1 1 2 2 1 1 1 1 1 2 3 5 5 4 6 4 6 5 5 4 3 5
3 8 7 6 4 2 7 2 8 8 5 10 11 15 11 15 14 11 10 8 7 8 8 6 5 5 4 5 4 4 3 2 3 2 2 4 3 3 1 0 2 2 2 2 2 3 4 3 3
5 2 3 8 5 4 6 4 7 13 15 12 13 11 12 12 12 11 10 8 8 7 8 8 7 6 4 6 3 3 2 1 2 2 2 10 7 7 7 5 5 5 4 3 2 2 1 1 3
3 3 5 4 3 2 1 1 6 12 13 17 14 14 14 17 16 14 13 13 9 9 8 8 8 5 5 5 5 3 2 1 3 3 6 9 14 18 15 12 14 13 12 11 8 4 3 2 2
1 5 8 5 2 2 6 7 5 6 18 16 11 16 17 17 15 15 13 9 8 7 8 7 8 7 6 4 2 2 3 4 5 5 5 4 5 12 17 17 17 16 15 14 13 12 6 6 4
7 6 4 4 3 6 2 1 11 9 7 18 23 17 18 18 16 14 12 12 10 9 8 7 8 4 3 4 7 7 7 7 7 5 4 6 5 5 12 16 16 15 16 17 16 12 8 9 8
1 6 5 5 3 4 6 5 6 6 12 9 16 15 13 15 15 15 16 15 14 12 9 8 7 7 8 8 7 5 6 4 4 5 4 4 4 4 13 14 15 16 16 16 16 11 10 11 8
3 2 3 5 2 0 4 6 6 4 5 4 9 10 13 15 15 15 15 15 13 11 10 7 10 8 7 8 6 6 5 6 5 6 8 5 9 11 13 15 14 15 15 15 14 8 5 7 5
2 3 2 3 1 4 5 5 5 4 4 2 5 10 10 12 12 13 14 13 11 7 8 9 8 9 7 7 6 6 5 7 8 9 6 7 10 12 12 13 14 13 14 15 11 5 5 4 3
1 1 4 4 4 4 2 5 4 9 7 8 7 8 11 14 14 12 10 8 8 10 11 9 9 10 8 7 6 6 5 6 8 6 7 8 11 12 11 11 10 10 10 13 9 6 4 5 5
2 5 5 5 4 3 3 6 5 6 5 4 6 8 10 12 9 8 11 13 12 11 9 9 7 9 7 6 6 6 6 5 6 5 6 10 8 11 9 10 8 8 10 12 8 9 6 7 7
Wind_Direction
235 196 112 56 65 64 67 88 119 298 16 36 61 87 91 35 39 75 282 286 108 60 50 42 43 44 43 46 46 43 42 41 42 44 43 48 53 56 55 54 52 48 39 34 35 49 54 54 53
208 124 51 87 88 84 2 256 69 64 121 150 46 82 72 65 19 86 27 58 87 76 60 59 55 53 49 45 47 42 42 42 40 39 38 38 43 50 55 52 50 50 44 39 42 42 46 50 47
118 58 70 72 69 98 177 82 95 105 172 222 103 49 11 28 302 29 310 116 101 85 78 70 66 63 58 54 52 48 41 38 35 34 33 30 30 31 38 48 51 45 43 44 48 49 40 37 30
24 20 48 72 93 50 103 124 123 186 34 67 117 54 95 206 295 336 346 123 103 95 81 76 71 69 67 63 59 54 47 38 37 27 19 16 24 31 23 22 22 29 35 41 41 40 27 15 4
30 53 65 82 69 102 114 130 134 132 113 39 86 66 69 304 270 338 26 90 105 104 84 74 71 73 68 65 57 53 50 46 37 28 27 23 10 21 16 15 13 10 9 12 14 9 358 349 344
44 83 79 104 97 98 77 101 101 94 111 122 84 84 21 287 310 330 342 39 95 103 91 68 56 59 70 69 65 59 52 46 34 30 29 26 24 25 21 11 5 360 359 3 4 353 343 336 330
107 66 64 114 127 95 117 104 53 80 87 33 104 95 284 310 318 317 319 69 69 66 58 48 34 32 46 47 56 60 51 42 35 29 33 36 35 45 27 25 25 19 13 8 7 347 336 332 326
104 89 130 137 138 113 136 90 107 79 56 142 14 144 156 254 312 22 85 67 62 53 50 40 30 46 39 45 61 59 51 43 35 27 20 29 29 36 35 28 25 24 26 24 14 23 12 341 326
114 78 146 144 145 152 136 97 25 26 86 43 43 119 176 259 106 106 94 72 60 53 39 41 38 50 53 59 56 61 49 41 34 28 21 23 21 16 29 30 27 24 22 18 18 17 8 4 1
67 89 142 130 128 128 116 105 137 106 356 41 46 63 229 98 90 93 79 72 73 52 28 42 42 52 57 50 64 61 54 46 38 32 27 22 22 27 34 23 18 16 11 11 12 8 3 3 359
25 91 93 73 104 117 124 126 120 125 32 199 172 183 178 86 86 97 84 84 89 85 54 36 44 49 54 51 62 64 57 47 37 32 29 26 28 26 23 21 18 19 15 13 10 5 359 350 355
94 57 91 115 90 104 129 116 77 23 181 151 173 169 164 121 112 120 109 93 80 69 53 40 47 46 49 57 63 71 58 49 37 32 30 25 21 24 21 22 19 21 14 11 7 1 355 0 353
83 90 78 91 88 81 82 58 97 71 110 124 156 166 144 124 112 93 100 88 83 77 53 46 56 52 58 58 66 70 68 56 46 38 32 33 27 21 22 21 22 21 15 11 3 359 354 351 348
116 99 89 95 91 109 107 118 75 249 161 154 217 177 128 124 118 100 90 96 89 111 93 53 57 65 74 69 79 78 71 60 52 44 37 37 37 30 28 25 20 19 17 11 1 355 348 345 346
109 103 90 116 128 137 125 24 90 189 181 199 164 138 120 121 125 129 138 123 116 89 137 95 91 57 61 56 74 83 81 69 60 51 43 41 42 38 34 29 22 17 18 12 6 3 2 3 355
95 56 119 219 149 187 91 200 221 199 167 160 154 144 133 137 130 142 143 128 115 104 97 57 47 38 39 70 81 100 91 76 68 62 54 48 43 42 37 31 25 24 21 18 8 1 359 2 354
355 158 164 177 203 138 161 165 223 195 167 172 172 154 149 131 138 162 142 140 143 144 119 56 25 21 44 117 108 127 106 88 76 69 62 55 50 44 41 32 28 27 20 11 2 3 3 3 353
174 127 224 195 207 152 149 198 188 197 170 176 180 171 168 170 176 171 159 158 146 143 132 97 54 48 71 95 97 94 100 104 97 85 76 69 64 57 48 36 29 23 15 10 8 1 2 335 348
155 144 154 241 202 140 195 176 188 191 180 178 189 184 185 180 182 166 170 153 135 139 128 105 85 37 47 21 42 41 98 314 327 83 86 75 70 62 61 54 40 28 25 359 5 342 356 343 358
105 133 208 334 194 127 169 214 195 194 200 188 189 196 187 182 167 167 166 167 170 155 152 137 104 74 71 88 58 147 162 206 209 264 295 16 30 75 77 57 45 46 38 12 5 21 348 336 17
82 162 181 170 159 97 132 312 214 235 212 212 201 195 184 177 175 173 174 171 160 149 161 168 144 123 108 93 94 79 74 30 359 344 324 284 259 262 337 47 337 5 28 38 351 360 36 346 329
111 321 177 125 103 210 159 266 209 211 218 210 206 190 183 184 182 176 170 165 175 173 163 172 164 152 143 123 93 109 145 149 234 251 343 345 339 298 278 286 294 311 318 310 297 315 285 103 328
161 138 145 142 113 44 255 22 265 167 220 222 213 199 190 188 182 181 181 175 185 166 169 171 170 177 185 171 161 157 185 318 2 357 14 13 21 33 15 354 354 339 334 319 311 301 279 234 224
106 55 41 62 68 340 218 170 262 186 217 211 212 204 191 189 189 183 181 156 173 176 162 168 167 203 202 201 49 52 32 43 47 24 28 15 12 35 22 19 17 13 8 0 349 334 314 303 284
67 59 9 355 1 228 19 217 246 228 228 204 202 201 194 186 181 175 161 166 169 177 175 182 180 198 147 104 88 86 86 81 65 46 40 32 15 26 14 17 16 11 9 13 12 10 1 358 351
56 133 149 209 220 278 303 241 250 266 235 211 205 200 178 177 179 175 172 170 174 174 180 190 134 109 112 106 97 89 85 79 70 60 53 39 27 29 21 21 18 15 17 15 9 6 4 16 16
264 124 167 119 7 30 261 292 329 38 67 142 192 161 174 175 174 172 167 171 173 176 186 142 126 115 116 115 111 91 85 80 74 60 55 51 35 24 22 21 14 15 15 8 4 2 17 27 12
61 154 73 1 205 255 284 273 241 262 195 114 164 185 175 165 162 164 169 172 176 160 115 112 111 118 112 108 94 88 85 72 62 56 47 39 25 25 17 12 13 8 1 356 1 354 6 15 348
95 225 59 119 143 182 272 266 221 276 211 184 194 183 166 165 163 160 161 151 115 112 112 113 108 104 94 93 96 87 74 65 56 57 50 31 27 19 19 18 10 357 343 343 340 333 324 329 316
209 208 153 127 245 236 157 276 325 0 284 216 190 178 168 153 133 119 117 118 111 110 109 106 98 94 95 96 87 79 70 59 59 58 40 35 28 26 22 7 356 342 338 336 327 320 311 315 324